Regional Weather Roundup
Issued by NWS

Home | Current Version | Previous Version | Text Only | Print | Product List | Glossary Off
Versions: 1 2 3 4 5 6 7 8 9 10 11 12 13 14 15 16 17 18 19 20 21 22 23 24 25 26 27 28 29 30 31 32 33 34 35 36 37 38 39 40 41 42 43 44 45 46 47 48 49 50

000
ASUS43 KMPX 051210
RWRMN
WEATHER ROUNDUP FOR MINNESOTA
NATIONAL WEATHER SERVICE TWIN CITIES/CHANHASSEN MN
600 AM CST MON DEC 05 2016


NOTE: "FAIR" INDICATES FEW OR NO CLOUDS BELOW 12,000 FEET WITH NO
SIGNIFICANT WEATHER AND/OR OBSTRUCTIONS TO VISIBILITY. N/A MEANS
CURRENT SKY AND/OR WEATHER CONDITIONS ARE NOT AVAILABLE.

MNZ060>063-068>070-051300-
   Twin Cities Metro

CITY           SKY/WX    TMP DP  RH WIND       PRES   REMARKS
TWIN CITIES    PTCLDY    28  26  92 E7        29.78F WCI  21
6HR MIN TEMP:  27; 6HR MAX TEMP:  33;

ST PAUL        PTCLDY    28  28 100 SE5       29.81S WCI  23
CRYSTAL        CLEAR     23  22  96 E3        29.77S FOG
BLAINE         CLEAR     28  28 100 CALM      29.78S
LAKEVILLE        N/A     25  25 100 CALM      29.78F
EDEN PRAIRIE   PTCLDY    28  26  92 E3        29.76F
6HR MIN TEMP:  28; 6HR MAX TEMP:  31;

SOUTH ST PAUL  FOG       27  27  98 CALM      29.79F VSB 3/4
LAKE ELMO      FOG       27  25  93 CALM      29.81R VSB 3/4
$$
MNZ001>005-007-008-013>017-022>024-027-028-051300-
   Northwest Minnesota

CITY           SKY/WX    TMP DP  RH WIND       PRES   REMARKS
BEMIDJI        CLOUDY    28  26  93 CALM      29.71S
HALLOCK        CLOUDY    28  27  93 CALM      29.70R
ROSEAU         CLOUDY    30  27  86 W6        29.70R WCI  24
WARROAD        CLOUDY    30  27  86 W6        29.69S WCI  24
THIEF RVR FALL CLOUDY    26  24  92 SE6       29.70F WCI  19
CROOKSTON      CLOUDY    27  27 100 SE7       29.70S FOG     WCI  19
FOSSTON        CLOUDY    27  25  93 E3        29.69F FOG
DETROIT LAKES  CLEAR     21  21 100 SE3       29.68F
MOORHEAD       CLEAR     21  19  93 E6        29.68F WCI  14
PARK RAPIDS    FOG       27  23  85 SE5       29.69F VSB 1/4 WCI  22
$$
MNZ006-009>011-018-025>026-051300-
   North Central Minnesota

CITY           SKY/WX    TMP DP  RH WIND       PRES   REMARKS
BAUDETTE       CLOUDY    29  26  89 SW7       29.68S WCI  22
FLAG ISLAND    CLOUDY    30  28  93 W9        29.66S WCI  22
INTL FALLS     CLOUDY    29  27  92 W5        29.69R FOG     WCI  24
6HR MIN TEMP:  29; 6HR MAX TEMP:  30; 6HR PCP: TRACE;

WASKISH        CLOUDY    28  27  93 W9        29.71R WCI  20
BIG FORK       CLOUDY    28  27  93 SW3       29.71S
LONGVILLE      CLOUDY    28  27  93 CALM      29.72S
GRAND RAPIDS   CLOUDY    29  26  89 W3        29.74R
CRANE LAKE     CLOUDY    28  27  93 CALM      29.71S
ORR            CLOUDY    28  25  86 CALM      29.68R
COOK           CLOUDY    28  25  86 W7        29.71R WCI  21
$$
MNZ012-019>021-037-051300-
   Northeast Minnesota

CITY           SKY/WX    TMP DP  RH WIND       PRES   REMARKS
DULUTH         CLOUDY    31  26  82 W12       29.72R WCI  22
6HR MIN TEMP:  30; 6HR MAX TEMP:  32; 6HR PCP: TRACE;

ELY            CLOUDY    28  27  93 W5        29.69R WCI  23
HIBBING        CLOUDY    28  25  88 SW6       29.71R WCI  22
EVELETH        CLOUDY    30  27  88 SW6       29.72R WCI  24
DULUTH HARBOR  CLOUDY    36  28  75 W8        29.77R
TWO HARBORS    PTCLDY    34  28  80 W5        29.71S WCI  30
SILVER BAY     CLOUDY    32  30  93 W3        29.71R
GRAND MARAIS     N/A     34  32  92 W5        29.71R WCI  30
G MARAIS ARPRT CLOUDY    28  25  86 W7        29.66R WCI  21
$$
MNZ029>031-032-039>041-046>048-054>057-064-051300-
   West Central Minnesota

CITY           SKY/WX    TMP DP  RH WIND       PRES   REMARKS
FERGUS FALLS   CLEAR     27  27 100 E5        29.71S WCI  21
MORRIS         CLEAR     28  27  93 E9        29.66F WCI  20
ALEXANDRIA     CLEAR     26  25  96 SE5       29.69F WCI  20
ELBOW LAKE     FAIR      28  26  96 SE8       29.67F WCI  19
WADENA         CLEAR     18  16  93 CALM      29.69F
GLENWOOD       CLEAR     25  25 100 E8        29.69F WCI  16
APPLETON       PTCLDY    30  27  86 SE10      29.66F WCI  21
BENSON         CLEAR     28  27  93 SE7       29.68F WCI  21
ORTONVILLE     PTCLDY    28  25  86 E8        29.64F WCI  20
MADISON        MOCLDY    32  30  93 E10       29.64F WCI  24
WILLMAR        FAIR      30  28  93 SE8       29.71F WCI  23
$$
MNZ033>034-036-042>043-049>051-058-059-051300-
   Central Minnesota

CITY           SKY/WX    TMP DP  RH WIND       PRES   REMARKS
ST CLOUD       CLEAR     27  26  96 SE6       29.75F WCI  20
6HR MIN TEMP:  23; 6HR MAX TEMP:  31;

PAYNESVILLE    CLEAR     27  27 100 E3        29.72F
AITKIN         CLOUDY    30  27  86 S3        29.74R
PINE RIVER     CLOUDY    27  27 100 S3        29.77S
BRAINERD       CLEAR     20  18  92 CALM      29.73F FOG
STAPLES        CLEAR     19  19 100 CALM      29.71F
LONG PRAIRIE   FAIR      21  21 100 CALM      29.72S
LITTLE FALLS   CLEAR     27  25  93 CALM      29.73F
LITCHFIELD     CLOUDY    27  27 100 E5        29.73F WCI  21
BUFFALO        CLEAR     27  25  95 CALM      29.76F
MAPLE LAKE     PTCLDY    29  29  99 E3        29.75F
$$
MNZ037-044-045-052-053-051300-
   East Central Minnesota

CITY           SKY/WX    TMP DP  RH WIND       PRES   REMARKS
PRINCETON      CLEAR     25  21  86 CALM      29.76F FOG
MORA           CLOUDY    19  18  93 CALM      29.79S FOG
CAMBRIDGE      CLEAR     28  27  93 SE3       29.76S FOG
RUSH CITY      CLEAR     23  21  93 SE3       29.78S
MOOSE LAKE     CLOUDY    32  28  86 S6        29.76R WCI  26
HINCKLEY       FOG       23  21  93 CALM      29.78S VSB 1/4
CLOQUET        CLOUDY    30  27  86 SW6       29.74R WCI  24
MCGREGOR       CLOUDY    32  28  86 SW5       29.75S WCI  27
$$
MNZ071>073-080-081-089-090-097-098-051300-
   Southwest Minnesota

CITY           SKY/WX    TMP DP  RH WIND       PRES   REMARKS
MONTEVIDEO     MOCLDY    28  28 100 S10       29.68F WCI  19
GRANITE FALLS  MOCLDY    32  30  93 E9        29.69F WCI  24
CANBY          PTCLDY    32  30  94 CALM      29.64F
MARSHALL       CLOUDY    35  31  85 SE9       29.65F WCI  28
REDWOOD FALLS  MOCLDY    31  28  89 E8        29.70F WCI  23
OLIVIA         PTCLDY    32  30  93 SE8       29.70F WCI  25
PIPESTONE      PTCLDY    34  30  86 S12       29.62F WCI  25
WINDOM         CLOUDY    34  32  93 CALM      29.69F
WORTHINGTON    CLOUDY    33  30  88 SE14      29.67F WCI  23
JACKSON        CLOUDY    32  30  93 S9        29.72F WCI  24
TRACY          CLOUDY    35  32  88 S15       29.65F WCI  26
SLAYTON        PTCLDY    32  31  94 SE13      29.65F WCI  22
$$
MNZ065>067-074>077-082>085-091>093-051300-
   South Central Minnesota

CITY           SKY/WX    TMP DP  RH WIND       PRES   REMARKS
NEW ULM        CLOUDY    32  30  93 SE10      29.72F WCI  24
ST JAMES       CLOUDY    34  30  86 SE7       29.74F WCI  28
FAIRMONT       CLOUDY    33  31  92 S13       29.75F WCI  24
GLENCOE        PTCLDY    32  32  99 SE6       29.75S WCI  26
FARIBAULT      CLOUDY    32  30  93 SE7       29.78F WCI  26
OWATONNA       CLOUDY    32  30  93 S10       29.79F WCI  24
WASECA         CLOUDY    32  30  93 SE6       29.79F WCI  26
ALBERT LEA     CLOUDY    36  34  93 S8        29.79F FOG
$$
MNZ078>079-086>088-094>096-051300-
   Southeast Minnesota

CITY           SKY/WX    TMP DP  RH WIND       PRES   REMARKS
ROCHESTER      CLOUDY    30  30 100 S13       29.82S FOG     WCI  20
6HR MIN TEMP:  25; 6HR MAX TEMP:  32;

RED WING       CLOUDY    28  27  93 CALM      29.80F
STANTON        CLOUDY    33  30  90 S7        29.78F WCI  27
DODGE CENTER   CLOUDY    28  28 100 S8        29.80S FOG     WCI  20
WINONA         CLOUDY    34  32  93 S3        29.86F
PRESTON        CLOUDY    29  28  97 S10       29.85R FOG     WCI  20
$$
ABBREVIATIONS USED IN REMARKS
   TC - TEMPERATURES IN CELSIUS
  WCI - WIND CHILL INDEX
   HX - HEAT INDEX
  VSB - VISIBILITY
$$



USA.gov is the U.S. government's official web portal to all federal, state and local government web resources and services.